University, MS

1:55 PM CDT on July 27, 2016 (GMT -0500)
University-Oxford

Weather History for KUOX - April, 2014

Change the Weather History Date:

Sunday, April 27, 2014

  Actual Average Record
Temperature  
Mean Temperature 68 °F -  
Max Temperature 71 °F 75 °F 89 °F (1989)
Min Temperature 64 °F 50 °F 34 °F (1978)
Cooling Degree Days 2    
Growing Degree Days 18 (Base 50)    
Moisture  
Dew Point 63 °F    
Average Humidity 88    
Maximum Humidity 100    
Minimum Humidity 60    
Precipitation  
Precipitation 0.31 in - - ()
Sea Level Pressure  
Sea Level Pressure 29.80 in    
Wind  
Wind Speed 4 mph (SSE)    
Max Wind Speed 8 mph    
Max Gust Speed -    
Visibility 8 miles    
Events Rain , Thunderstorm    
Averages and records for this station are not official NWS values.
T = Trace of Precipitation, MM = Missing Value Source: NWS Daily Summary

Daily Weather History Graph

Daily Weather History Graph

Search for Another Location

Airport or City:

Trip Planner

Search our weather history database for the weather conditions in past years. The results will help you decide how hot, cold, wet, or windy it might be!

Date:

Astronomy

Apr. 27, 2014 Rise Set
Actual Time 6:12 AM CDT 7:39 PM CDT
Civil Twilight 5:46 AM CDT 8:06 PM CDT
Nautical Twilight 5:14 AM CDT 8:37 PM CDT
Astronomical Twilight 4:41 AM CDT 9:11 PM CDT
Moon 5:07 AM CDT 6:16 PM CDT
Length of Visible Light 14h 19m
Length of Day
13h 26m
Waning Crescent, 3% of the Moon is Illuminated
Apr 27
Waning Crescent
Apr 29
New
May 6
First Quarter
May 14
Full
May 21
Last Quarter

Hourly Weather History & Observations

Time (CDT) Temp. Dew Point Humidity Pressure Visibility Wind Dir Wind Speed Gust Speed Precip Events Conditions
12:15 AM 68.0 °F 53.6 °F 60% 29.89 in 10.0 mi SSE 3.5 mph - N/A   Clear
12:35 AM 68.0 °F 53.6 °F 60% 29.89 in 10.0 mi SSE 3.5 mph - N/A   Clear
12:55 AM 68.0 °F 55.4 °F 64% 29.88 in 10.0 mi SSE 3.5 mph - N/A   Clear
1:15 AM 68.0 °F 53.6 °F 60% 29.87 in 10.0 mi SSE 3.5 mph - N/A   Clear
1:35 AM 68.0 °F 55.4 °F 64% 29.87 in 10.0 mi SSE 3.5 mph - N/A   Clear
1:55 AM 68.0 °F 55.4 °F 64% 29.86 in 10.0 mi SSE 3.5 mph - N/A   Clear
2:15 AM 68.0 °F 55.4 °F 64% 29.85 in 10.0 mi SSE 3.5 mph - N/A   Clear
2:35 AM 68.0 °F 57.2 °F 68% 29.86 in 10.0 mi South 3.5 mph - N/A   Clear
2:55 AM 68.0 °F 57.2 °F 68% 29.85 in 10.0 mi South 4.6 mph - N/A   Clear
3:15 AM 66.2 °F 57.2 °F 73% 29.86 in 10.0 mi SSE 3.5 mph - N/A   Clear
3:35 AM 66.2 °F 59.0 °F 78% 29.86 in 10.0 mi South 3.5 mph - N/A   Clear
3:55 AM 66.2 °F 59.0 °F 78% 29.86 in 10.0 mi Calm Calm - N/A   Clear
4:15 AM 66.2 °F 59.0 °F 78% 29.86 in 10.0 mi South 3.5 mph - N/A   Clear
4:35 AM 66.2 °F 59.0 °F 78% 29.85 in 10.0 mi Calm Calm - N/A   Clear
5:15 AM 66.2 °F 60.8 °F 83% 29.85 in 10.0 mi Calm Calm - N/A   Clear
5:35 AM 66.2 °F 62.6 °F 88% 29.85 in 9.0 mi Calm Calm - N/A   Clear
5:55 AM 66.2 °F 62.6 °F 88% 29.85 in 8.0 mi Calm Calm - N/A   Clear
6:15 AM 64.4 °F 62.6 °F 94% 29.84 in 8.0 mi Calm Calm - N/A   Clear
6:35 AM 64.4 °F 62.6 °F 94% 29.83 in 7.0 mi SSE 3.5 mph - N/A   Clear
6:55 AM 66.2 °F 62.6 °F 88% 29.84 in 8.0 mi South 3.5 mph - N/A Thunderstorm Partly Cloudy
7:15 AM 66.2 °F 64.4 °F 94% 29.85 in 9.0 mi South 5.8 mph - N/A Thunderstorm Partly Cloudy
7:35 AM 66.2 °F 64.4 °F 94% 29.85 in 1.5 mi South 5.8 mph - 0.02 in Rain , Thunderstorm Light Rain
7:55 AM 66.2 °F 64.4 °F 94% 29.85 in 5.0 mi South 4.6 mph - 0.02 in Rain , Thunderstorm Light Thunderstorms and Rain
8:15 AM 66.2 °F 64.4 °F 94% 29.85 in 5.0 mi South 4.6 mph - N/A Rain , Thunderstorm Light Rain
8:35 AM 66.2 °F 64.4 °F 94% 29.86 in 5.0 mi South 5.8 mph - N/A Rain , Thunderstorm Light Rain
8:55 AM 66.2 °F 64.4 °F 94% 29.86 in 2.5 mi SW 4.6 mph - 0.02 in Rain , Thunderstorm Light Rain
9:15 AM 66.2 °F 64.4 °F 94% 29.89 in 3.0 mi SSW 3.5 mph - N/A Rain , Thunderstorm Light Thunderstorms and Rain
9:35 AM 66.2 °F 64.4 °F 94% 29.89 in 2.5 mi Calm Calm - 0.03 in Rain , Thunderstorm Light Rain
9:55 AM 66.2 °F 64.4 °F 94% 29.88 in 1.0 mi Calm Calm - 0.06 in Rain , Thunderstorm Light Rain
10:15 AM 66.2 °F 64.4 °F 94% 29.87 in 1.0 mi Calm Calm - 0.03 in Rain Light Rain
10:35 AM 66.2 °F 66.2 °F 100% 29.88 in 3.0 mi South 3.5 mph - 0.03 in Rain , Thunderstorm Light Rain
10:55 AM 66.2 °F 66.2 °F 100% 29.86 in 3.0 mi Calm Calm - 0.03 in Rain , Thunderstorm Light Rain
11:15 AM 66.2 °F 66.2 °F 100% 29.86 in 1.5 mi Calm Calm - 0.02 in Rain , Thunderstorm Light Rain
11:35 AM 66.2 °F 64.4 °F 94% 29.86 in 1.0 mi SSE 3.5 mph - 0.09 in Rain , Thunderstorm Rain
11:55 AM 64.4 °F 64.4 °F 100% 29.83 in 3.0 mi ESE 4.6 mph - 0.16 in Rain , Thunderstorm Light Rain
12:15 PM 64.4 °F 64.4 °F 100% 29.82 in 5.0 mi South 5.8 mph - N/A Rain , Thunderstorm Light Rain
12:35 PM 64.4 °F 64.4 °F 100% 29.82 in 6.0 mi SSE 6.9 mph - N/A Thunderstorm Overcast
12:55 PM 64.4 °F 64.4 °F 100% 29.79 in 7.0 mi SE 4.6 mph - N/A Thunderstorm Mostly Cloudy
1:15 PM 66.2 °F 64.4 °F 94% 29.78 in 5.0 mi SE 4.6 mph - N/A Rain , Thunderstorm Light Rain
1:35 PM 66.2 °F 64.4 °F 94% 29.77 in 5.0 mi SE 5.8 mph - N/A Rain , Thunderstorm Light Rain
1:55 PM 66.2 °F 64.4 °F 94% 29.77 in 3.0 mi Calm Calm - 0.02 in Rain , Thunderstorm Light Rain
2:15 PM 66.2 °F 64.4 °F 94% 29.78 in 5.0 mi Calm Calm - N/A Rain , Thunderstorm Light Rain
2:35 PM 66.2 °F 64.4 °F 94% 29.78 in 7.0 mi ESE 3.5 mph - N/A Rain , Thunderstorm Light Rain
2:55 PM 66.2 °F 64.4 °F 94% 29.78 in 8.0 mi ENE 8.1 mph - N/A Thunderstorm Overcast
3:15 PM 64.4 °F 64.4 °F 100% 29.78 in 7.0 mi East 5.8 mph - N/A Thunderstorm Thunderstorm
3:35 PM 66.2 °F 64.4 °F 94% 29.77 in 8.0 mi ESE 5.8 mph - N/A Thunderstorm Overcast
3:55 PM 64.4 °F 62.6 °F 94% 29.76 in 9.0 mi Calm Calm - N/A Thunderstorm Overcast
4:15 PM 64.4 °F 62.6 °F 94% 29.75 in 8.0 mi SE 4.6 mph - N/A   Overcast
4:35 PM 66.2 °F 62.6 °F 88% 29.73 in 9.0 mi ESE 8.1 mph - N/A   Overcast
5:15 PM 66.2 °F 62.6 °F 88% 29.71 in 9.0 mi ESE 5.8 mph - N/A   Partly Cloudy
5:35 PM 66.2 °F 62.6 °F 88% 29.72 in 9.0 mi ESE 4.6 mph - N/A   Clear
5:55 PM 66.2 °F 62.6 °F 88% 29.73 in 10.0 mi ESE 6.9 mph - N/A   Clear
6:15 PM 66.2 °F 62.6 °F 88% 29.71 in 9.0 mi SE 4.6 mph - N/A Thunderstorm Partly Cloudy
6:35 PM 66.2 °F 62.6 °F 88% 29.70 in 9.0 mi SE 8.1 mph - N/A Thunderstorm Clear
6:55 PM 66.2 °F 62.6 °F 88% 29.70 in 9.0 mi SE 5.8 mph - N/A Thunderstorm Clear
7:15 PM 66.2 °F 64.4 °F 94% 29.68 in 9.0 mi SSE 5.8 mph - N/A   Clear
7:55 PM 66.2 °F 64.4 °F 94% 29.69 in 10.0 mi SE 5.8 mph - N/A   Clear
8:15 PM 66.2 °F 64.4 °F 94% 29.67 in 10.0 mi ESE 5.8 mph - N/A   Clear
8:35 PM 66.2 °F 64.4 °F 94% 29.68 in 10.0 mi SE 3.5 mph - N/A   Mostly Cloudy
8:55 PM 66.2 °F 64.4 °F 94% 29.67 in 10.0 mi SE 5.8 mph - N/A   Mostly Cloudy
9:15 PM 66.2 °F 64.4 °F 94% 29.69 in 10.0 mi SE 5.8 mph - N/A   Partly Cloudy
9:35 PM 68.0 °F 64.4 °F 88% 29.69 in 10.0 mi SE 4.6 mph - N/A   Scattered Clouds
9:55 PM 68.0 °F 64.4 °F 88% 29.69 in 10.0 mi SSE 4.6 mph - N/A   Partly Cloudy
10:15 PM 68.0 °F 66.2 °F 94% 29.69 in 10.0 mi SSE 5.8 mph - N/A   Partly Cloudy
10:35 PM 68.0 °F 66.2 °F 94% 29.69 in 10.0 mi SSE 3.5 mph - N/A   Partly Cloudy
10:55 PM 69.8 °F 66.2 °F 88% 29.69 in 10.0 mi SSE 5.8 mph - N/A   Partly Cloudy
11:15 PM 69.8 °F 66.2 °F 88% 29.69 in 10.0 mi South 5.8 mph - N/A   Scattered Clouds
11:35 PM 71.6 °F 66.2 °F 83% 29.69 in 10.0 mi South 5.8 mph - N/A   Scattered Clouds
11:55 PM 69.8 °F 66.2 °F 88% 29.70 in 10.0 mi SSE 4.6 mph - N/A   Partly Cloudy